Flag for Germany Weather past 2 weeks in Garmisch-Partenkirchen, Bavaria, Germany

36 °F

Broken clouds.

Feels Like: 36 °F
Forecast: 30 / 35 °F
Wind: 1 mph from North

Location: Innsbruck-Flughafen

Current Time: Nov 25, 2015 at 2:14:53 PM

Latest Report: Nov 25, 2015 at 1:20 PM

Visibility: N/A

Pressure: 29.77 "Hg (27.29 "Hg at 699m altitude)

Humidity: 60%

Dew point: 23 °F

Location of Garmisch-PartenkirchenLocation

Historic Weather in Garmisch-Partenkirchen — Graph


Garmisch-Partenkirchen temperature yesterday

Maximum temperature yesterday: 37 °F (at 1:50 PM)
Minimum temperature yesterday: 21 °F (at 6:20 AM)
Average temperature yesterday: 28 °F

Past Weeks' High & Low Weather Summary

High70 °F (Nov 18, 1:20 PM)100% (Nov 11, 2:20 AM)30.45 "Hg (Nov 11, 2:20 AM)
Low21 °F (Nov 24, 6:20 AM)25% (Nov 18, 1:20 PM)29.36 "Hg (Nov 21, 1:20 PM)
Average42 °F78%30.08 "Hg
* Reported Nov 10 12:20 PM — Nov 25 12:50 PM, Garmisch-Partenkirchen, Weather by CustomWeather, © 2015

Note: Actual official high and low records may vary slightly from our data, if they occured in-between our weather recording intervals... More about our weather records


Garmisch-Partenkirchen weather history for previous 24 hours

Time TempWeatherWind HumidityBarometerVisibility
12:50 PM
Wed, Nov 25
36 °FBroken clouds.1 mph60%29.77 "HgN/A
12:20 PM36 °FBroken clouds.1 mph60%29.77 "HgN/A
11:50 AM34 °FBroken clouds.2 mph65%29.80 "HgN/A
11:20 AM34 °FBroken clouds.5 mph65%29.80 "HgN/A
10:50 AM32 °FBroken clouds.2 mph75%29.83 "HgN/A
10:20 AM32 °FBroken clouds.1 mph69%29.83 "HgN/A
9:50 AM30 °FPartly sunny.2 mph75%29.83 "HgN/A
9:20 AM30 °FBroken clouds.2 mph75%29.86 "HgN/A
8:50 AM30 °FBroken clouds.2 mph75%29.86 "HgN/A
7:50 AM28 °FPartly sunny.1 mph80%29.86 "HgN/A
7:20 AM27 °FPartly cloudy.1 mph86%29.86 "HgN/A
6:50 AM27 °FPassing clouds.1 mph86%29.86 "HgN/A
6:20 AM27 °FPassing clouds.1 mph86%29.86 "HgN/A
5:50 AM27 °FPassing clouds.2 mph86%29.86 "HgN/A
4:50 AM27 °FPassing clouds.1 mph80%29.86 "HgN/A
4:20 AM27 °FPassing clouds.2 mph80%29.89 "HgN/A
3:50 AM27 °FPassing clouds.No wind80%29.89 "HgN/A
3:20 AM27 °FPassing clouds.1 mph80%29.92 "HgN/A
2:50 AM27 °FPassing clouds.1 mph80%29.92 "HgN/A
2:20 AM27 °FPassing clouds.3 mph80%29.95 "HgN/A
1:50 AM27 °FPassing clouds.2 mph80%29.95 "HgN/A
1:20 AM27 °FPartly cloudy.3 mph86%29.98 "HgN/A
12:50 AM27 °FPassing clouds.1 mph80%29.98 "HgN/A
12:20 AM27 °FPassing clouds.1 mph80%30.01 "HgN/A
11:50 PM
Tue, Nov 24
27 °FPassing clouds.5 mph80%30.01 "HgN/A
10:50 PM25 °FPartly cloudy.2 mph86%30.04 "HgN/A
10:20 PM25 °FClear.1 mph86%30.07 "Hg10 mi
9:50 PM25 °FClear.2 mph86%30.07 "Hg10 mi
9:20 PM25 °FClear.1 mph86%30.07 "Hg10 mi
8:50 PM27 °FClear.2 mph80%30.07 "Hg10 mi
8:20 PM27 °FClear.2 mph80%30.07 "Hg10 mi
7:50 PM27 °FClear.1 mph80%30.07 "Hg10 mi
7:20 PM27 °FPassing clouds.3 mph80%30.09 "HgN/A
6:50 PM27 °FClear.1 mph80%30.09 "Hg10 mi
6:20 PM28 °FClear.3 mph74%30.09 "Hg10 mi
5:50 PM28 °FClear.1 mph74%30.09 "Hg10 mi
5:20 PM28 °FClear.2 mph74%30.09 "Hg10 mi
4:50 PM28 °FClear.2 mph74%30.09 "Hg10 mi
4:20 PM30 °FPassing clouds.3 mph75%30.09 "HgN/A
3:50 PM32 °FPassing clouds.3 mph69%30.09 "HgN/A
3:20 PM36 °FSunny.3 mph60%30.12 "Hg10 mi
2:50 PM36 °FSunny.2 mph60%30.12 "Hg10 mi
2:20 PM37 °FPassing clouds.3 mph48%30.12 "HgN/A
Weather by CustomWeather, © 2015

See weather overviewHow to use our weather pages